Date,TemperatureHighF,TemperatureAvgF,TemperatureLowF,DewpointHighF,DewpointAvgF,DewpointLowF,HumidityHigh,HumidityAvg,HumidityLow,PressureMaxIn,PressureMinIn,WindSpeedMaxMPH,WindSpeedAvgMPH,GustSpeedMaxMPH,PrecipitationSumIn
2013-3-1,35,32,29,-100,-100,-100,0,0,100,0.00,40.00,0,-999,0,0.01
2013-3-2,32,29,24,-100,-100,-100,0,0,100,0.00,40.00,0,-999,0,0.00
2013-3-3,27,24,21,-100,-100,-100,0,0,100,0.00,40.00,0,-999,0,0.00
2013-3-4,31,25,22,-100,-100,-100,0,0,100,0.00,40.00,0,-999,0,0.00
2013-3-5,37,29,24,-100,-100,-100,0,0,100,0.00,40.00,0,-999,0,0.00
2013-3-6,33,31,29,-100,-100,-100,0,0,100,0.00,40.00,0,-999,0,0.03
2013-3-7,34,29,27,-100,-100,-100,0,0,100,0.00,40.00,0,-999,0,0.01
2013-3-8,36,30,26,-100,-100,-100,0,0,100,0.00,40.00,0,-999,0,0.01
2013-3-9,52,34,19,-100,-100,-100,0,0,100,0.00,40.00,0,-999,0,0.01
2013-3-10,48,35,18,-100,-100,-100,0,0,100,0.00,40.00,0,-999,0,0.00
2013-3-11,43,38,32,-100,-100,-100,0,0,100,0.00,40.00,0,-999,0,0.00
2013-3-12,48,43,37,-100,-100,-100,0,0,100,0.00,40.00,0,-999,0,0.81
2013-3-13,40,35,28,-100,-100,-100,0,0,100,0.00,40.00,0,-999,0,0.18
2013-3-14,32,23,17,-100,-100,-100,0,0,100,0.00,40.00,0,-999,0,0.06
2013-3-15,32,24,15,-100,-100,-100,0,0,100,0.00,40.00,0,-999,0,0.03
2013-3-16,30,25,19,-100,-100,-100,0,0,100,0.00,40.00,0,-999,0,0.00
2013-3-17,28,22,17,-100,-100,-100,0,0,100,0.00,40.00,0,-999,0,0.25
2013-3-18,31,20,4,-100,-100,-100,0,0,100,0.00,40.00,0,-999,0,0.03
2013-3-19,29,26,23,-100,-100,-100,0,0,100,0.00,40.00,0,-999,0,0.02
2013-3-20,31,25,20,-100,-100,-100,0,0,100,0.00,40.00,0,-999,0,0.06
2013-3-21,33,24,12,-100,-100,-100,0,0,100,0.00,40.00,0,-999,0,0.10
2013-3-22,32,23,11,-100,-100,-100,0,0,100,0.00,40.00,0,-999,0,0.02
2013-3-23,35,29,23,-100,-100,-100,0,0,100,0.00,40.00,0,-999,0,6.14
2013-3-24,37,32,28,-100,-100,-100,0,0,100,0.00,40.00,0,-999,0,0.19
2013-3-25,38,32,25,-100,-100,-100,0,0,100,0.00,40.00,0,-999,0,0.00
2013-3-26,39,33,26,-100,-100,-100,0,0,100,0.00,40.00,0,-999,0,0.00
2013-3-27,44,34,20,-100,-100,-100,0,0,100,0.00,40.00,0,-999,0,0.00
2013-3-28,43,37,31,-100,-100,-100,0,0,100,0.00,40.00,0,-999,0,0.00
2013-3-29,44,39,31,-100,-100,-100,0,0,100,0.00,40.00,0,-999,0,0.00
2013-3-30,49,37,26,-100,-100,-100,0,0,100,0.00,40.00,0,-999,0,0.00
2013-3-31,53,36,21,-100,-100,-100,0,0,100,0.00,40.00,0,-999,0,0.24